| time (UTC) | temp F | wind direction | speed knots | gust knots | rain 1hr in | rain 24hr in | rain mn in | humidity % | barometer mb |
| 20260507101046 | 48 | 0.0 | 0.0 | 0.00 | 0.00 | 0.00 | 72 | 1006.7 | |
| 20260507100017 | 48 | 279 | 0.9 | 4.3 | 0.00 | 0.00 | 0.00 | 73 | 1007.0 |
| 20260507095020 | 48 | 293 | 0.9 | 3.5 | 0.00 | 0.00 | 0.00 | 74 | 1006.9 |
| 20260507094038 | 48 | 0.0 | 0.0 | 0.00 | 0.00 | 0.00 | 75 | 1006.8 | |
| 20260507093015 | 48 | 0.0 | 0.0 | 0.00 | 0.00 | 0.00 | 76 | 1006.7 | |
| 20260507092030 | 48 | 0.0 | 0.0 | 0.00 | 0.00 | 0.00 | 76 | 1007.1 | |
| 20260507091016 | 48 | 0.0 | 0.0 | 0.00 | 0.00 | 0.00 | 76 | 1006.6 | |
| 20260507090019 | 48 | 0.0 | 0.0 | 0.00 | 0.00 | 0.00 | 76 | 1006.7 | |
| 20260507085022 | 48 | 0.0 | 0.0 | 0.00 | 0.00 | 0.00 | 76 | 1006.7 | |
| 20260507084026 | 48 | 270 | 0.0 | 2.6 | 0.00 | 0.00 | 0.00 | 76 | 1006.6 |
| 20260507083029 | 48 | 0.0 | 0.0 | 0.00 | 0.00 | 0.00 | 76 | 1006.4 | |
| 20260507082032 | 49 | 304 | 0.9 | 2.6 | 0.00 | 0.00 | 0.00 | 75 | 1006.6 |
| 20260507081017 | 49 | 0.0 | 0.0 | 0.00 | 0.00 | 0.00 | 74 | 1006.4 | |
| 20260507080021 | 50 | 248 | 0.0 | 1.7 | 0.00 | 0.00 | 0.00 | 73 | 1006.7 |
| 20260507075024 | 50 | 273 | 1.7 | 4.3 | 0.00 | 0.00 | 0.00 | 73 | 1006.6 |
| 20260507074047 | 50 | 0.0 | 1.7 | 0.00 | 0.00 | 0.00 | 74 | 1006.4 | |
| 20260507073050 | 50 | 0.0 | 0.0 | 0.00 | 0.00 | 0.00 | 74 | 1006.2 | |
| 20260507072016 | 50 | 220 | 0.9 | 5.2 | 0.00 | 0.00 | 0.00 | 75 | 1006.1 |
| 20260507071019 | 51 | 333 | 0.9 | 3.5 | 0.00 | 0.00 | 0.00 | 75 | 1006.2 |
| 20260507070022 | 51 | 0.0 | 0.9 | 0.00 | 0.00 | 0.00 | 75 | 1006.0 | |
| 20260507065026 | 51 | 0 | 0.9 | 4.3 | 0.00 | 0.00 | 0.00 | 75 | 1006.0 |
| 20260507064029 | 51 | 296 | 0.9 | 4.3 | 0.00 | 0.00 | 0.00 | 74 | 1005.9 |
| 20260507063026 | 51 | 225 | 0.9 | 3.5 | 0.00 | 0.00 | 0.00 | 74 | 1005.6 |
| 20260507062017 | 51 | 0.0 | 0.0 | 0.00 | 0.00 | 0.00 | 75 | 1005.9 | |
| 20260507061021 | 51 | 315 | 0.0 | 0.9 | 0.00 | 0.00 | 0.00 | 75 | 1006.0 |
| 20260507060018 | 51 | 0.0 | 1.7 | 0.00 | 0.00 | 0.00 | 77 | 1006.2 | |
| 20260507055015 | 51 | 266 | 1.7 | 6.1 | 0.00 | 0.00 | 0.00 | 79 | 1006.4 |
| 20260507054051 | 52 | 248 | 0.0 | 2.6 | 0.00 | 0.00 | 0.00 | 80 | 1006.3 |
| 20260507053016 | 52 | 0.0 | 0.0 | 0.00 | 0.00 | 0.00 | 80 | 1006.1 | |
| 20260507052019 | 52 | 203 | 0.0 | 1.7 | 0.00 | 0.00 | 0.00 | 80 | 1006.5 |
| 20260507051043 | 52 | 158 | 0.0 | 1.7 | 0.00 | 0.00 | 0.00 | 80 | 1006.1 |
| 20260507050046 | 52 | 45 | 0.9 | 3.5 | 0.00 | 0.00 | 0.00 | 80 | 1006.1 |
| 20260507045029 | 52 | 0.0 | 0.0 | 0.00 | 0.00 | 0.00 | 80 | 1006.0 | |
| 20260507044032 | 53 | 270 | 0.0 | 1.7 | 0.00 | 0.00 | 0.00 | 80 | 1006.0 |
| 20260507043038 | 53 | 315 | 0.0 | 1.7 | 0.00 | 0.00 | 0.00 | 80 | 1006.1 |
| 20260507042041 | 54 | 338 | 0.0 | 0.9 | 0.00 | 0.00 | 0.00 | 81 | 1006.4 |
| 20260507041024 | 54 | 293 | 0.0 | 0.9 | 0.00 | 0.00 | 0.00 | 81 | 1006.2 |
| 20260507040048 | 55 | 0.0 | 1.7 | 0.00 | 0.00 | 0.00 | 81 | 1005.9 | |
| 20260507035031 | 57 | 0.0 | 0.0 | 0.00 | 0.00 | 0.00 | 82 | 1005.5 | |
| 20260507034016 | 57 | 0.0 | 1.7 | 0.00 | 0.00 | 0.00 | 83 | 1005.3 | |
| 20260507033019 | 58 | 323 | 1.7 | 6.1 | 0.00 | 0.00 | 0.00 | 83 | 1005.2 |
| 20260507032022 | 58 | 274 | 2.6 | 7.8 | 0.00 | 0.00 | 0.00 | 83 | 1005.2 |
| 20260507031026 | 59 | 252 | 3.5 | 7.8 | 0.00 | 0.00 | 0.00 | 83 | 1005.0 |
| 20260507030029 | 59 | 225 | 0.0 | 1.7 | 0.00 | 0.00 | 0.00 | 82 | 1004.8 |
| 20260507025026 | 59 | 270 | 0.0 | 1.7 | 0.00 | 0.00 | 0.00 | 82 | 1004.8 |
| 20260507024018 | 59 | 264 | 0.9 | 4.3 | 0.00 | 0.00 | 0.00 | 82 | 1004.8 |
| 20260507023041 | 59 | 239 | 0.9 | 2.6 | 0.00 | 0.00 | 0.00 | 82 | 1004.7 |
| 20260507022018 | 59 | 0.0 | 0.0 | 0.00 | 0.00 | 0.00 | 82 | 1004.7 | |
| 20260507021116 | 59 | 0.0 | 0.0 | 0.00 | 0.00 | 0.00 | 82 | 1004.6 | |
| 20260507020031 | 59 | 180 | 0.0 | 3.5 | 0.00 | 0.00 | 0.00 | 82 | 1004.8 |
| 20260507015016 | 59 | 225 | 0.0 | 3.5 | 0.00 | 0.00 | 0.00 | 82 | 1004.7 |
| 20260507014019 | 59 | 0.0 | 0.0 | 0.00 | 0.00 | 0.00 | 82 | 1004.8 | |
| 20260507013103 | 59 | 113 | 0.0 | 0.9 | 0.00 | 0.00 | 0.00 | 82 | 1005.0 |
| 20260507012026 | 59 | 236 | 0.9 | 7.0 | 0.00 | 0.00 | 0.00 | 82 | 1004.9 |
| 20260507010033 | 59 | 225 | 0.0 | 0.9 | 0.00 | 0.00 | 0.00 | 82 | 1004.9 |
| 20260507005018 | 59 | 0.0 | 0.0 | 0.00 | 0.00 | 0.00 | 82 | 1004.7 | |
| 20260507004021 | 59 | 187 | 1.7 | 6.1 | 0.00 | 0.00 | 0.00 | 82 | 1004.8 |
| 20260507003025 | 60 | 178 | 1.7 | 5.2 | 0.00 | 0.00 | 0.00 | 82 | 1005.0 |
| 20260507002028 | 60 | 211 | 1.7 | 3.5 | 0.00 | 0.00 | 0.00 | 82 | 1004.7 |
| 20260507001031 | 60 | 177 | 0.9 | 4.3 | 0.00 | 0.00 | 0.00 | 82 | 1004.7 |
| 20260507000016 | 60 | 265 | 0.9 | 6.1 | 0.00 | 0.00 | 0.00 | 82 | 1004.7 |
| 20260506235020 | 60 | 225 | 0.0 | 3.5 | 0.00 | 0.00 | 0.00 | 82 | 1004.6 |
| 20260506234023 | 60 | 158 | 0.9 | 5.2 | 0.00 | 0.00 | 0.00 | 81 | 1004.6 |
| 20260506233046 | 60 | 162 | 0.9 | 4.3 | 0.00 | 0.00 | 0.00 | 81 | 1004.6 |
| 20260506232050 | 60 | 135 | 0.9 | 5.2 | 0.00 | 0.00 | 0.00 | 81 | 1004.8 |
| 20260506231015 | 60 | 90 | 0.0 | 2.6 | 0.00 | 0.00 | 0.00 | 81 | 1005.0 |
| 20260506230038 | 60 | 146 | 0.0 | 1.7 | 0.00 | 0.00 | 0.00 | 80 | 1004.9 |
| 20260506225041 | 60 | 0.0 | 0.0 | 0.00 | 0.00 | 0.00 | 80 | 1004.8 | |
| 20260506224019 | 60 | 210 | 0.9 | 7.0 | 0.00 | 0.00 | 0.00 | 79 | 1004.9 |
| 20260506223016 | 60 | 212 | 0.9 | 1.7 | 0.00 | 0.00 | 0.00 | 79 | 1005.0 |
| 20260506222031 | 60 | 0.0 | 2.6 | 0.00 | 0.00 | 0.00 | 78 | 1005.2 | |
| 20260506221016 | 60 | 203 | 0.0 | 2.6 | 0.00 | 0.00 | 0.00 | 78 | 1005.3 |
| 20260506220020 | 61 | 158 | 0.0 | 1.7 | 0.00 | 0.00 | 0.00 | 78 | 1005.2 |
| 20260506215024 | 61 | 0.0 | 1.7 | 0.00 | 0.00 | 0.00 | 78 | 1005.4 | |
| 20260506214027 | 61 | 98 | 1.7 | 7.8 | 0.00 | 0.00 | 0.00 | 78 | 1005.5 |
| 20260506213030 | 61 | 0.0 | 1.7 | 0.00 | 0.00 | 0.00 | 77 | 1005.5 |